Year,Month,Day,Hour,Minute,Value (Times are PST for temperature in C)
2018,07,20,00,00,15.40
2018,07,20,00,01,15.40
2018,07,20,00,02,15.40
2018,07,20,00,03,15.40
2018,07,20,00,04,15.40
2018,07,20,00,05,15.40
2018,07,20,00,06,15.40
2018,07,20,00,07,15.40
2018,07,20,00,08,15.40
2018,07,20,00,09,15.40
2018,07,20,00,10,15.40
2018,07,20,00,11,15.40
2018,07,20,00,12,15.40
2018,07,20,00,13,15.40
2018,07,20,00,14,15.40
2018,07,20,00,15,15.40
2018,07,20,00,16,15.40
2018,07,20,00,17,15.40
2018,07,20,00,18,15.40
2018,07,20,00,19,15.40
2018,07,20,00,20,15.40
2018,07,20,00,21,15.40
2018,07,20,00,22,15.40
2018,07,20,00,23,15.40
2018,07,20,00,24,15.40
2018,07,20,00,25,15.40
2018,07,20,00,26,15.30
2018,07,20,00,27,15.30
2018,07,20,00,28,15.30
2018,07,20,00,29,15.30
2018,07,20,00,30,15.30
2018,07,20,00,31,15.30
2018,07,20,00,32,15.30
2018,07,20,00,33,15.30
2018,07,20,00,34,15.30
2018,07,20,00,35,15.30
2018,07,20,00,36,15.20
2018,07,20,00,37,15.20
2018,07,20,00,38,15.20
2018,07,20,00,39,15.20
2018,07,20,00,40,15.20
2018,07,20,00,41,15.20
2018,07,20,00,42,15.10
2018,07,20,00,43,15.10
2018,07,20,00,44,15.10
2018,07,20,00,45,15.10
2018,07,20,00,46,15.10
2018,07,20,00,47,15.00
2018,07,20,00,48,15.00
2018,07,20,00,49,15.00
2018,07,20,00,50,15.00
2018,07,20,00,51,15.00
2018,07,20,00,52,15.00
2018,07,20,00,53,14.90
2018,07,20,00,54,14.90
2018,07,20,00,55,14.90
2018,07,20,00,56,14.90
2018,07,20,00,57,14.90
2018,07,20,00,58,14.90
2018,07,20,00,59,14.90
2018,07,20,01,00,14.90
2018,07,20,01,01,14.90
2018,07,20,01,02,14.90
2018,07,20,01,03,14.90
2018,07,20,01,04,14.80
2018,07,20,01,05,14.80
2018,07,20,01,06,14.80
2018,07,20,01,07,14.80
2018,07,20,01,08,14.80
2018,07,20,01,09,14.80
2018,07,20,01,10,14.80
2018,07,20,01,11,14.80
2018,07,20,01,12,14.80
2018,07,20,01,13,14.80
2018,07,20,01,14,14.80
2018,07,20,01,15,14.80
2018,07,20,01,16,14.80
2018,07,20,01,17,14.80
2018,07,20,01,18,14.80
2018,07,20,01,19,14.80
2018,07,20,01,20,14.80
2018,07,20,01,21,14.80
2018,07,20,01,22,14.80
2018,07,20,01,23,14.70
2018,07,20,01,24,14.70
2018,07,20,01,25,14.70
2018,07,20,01,26,14.70
2018,07,20,01,27,14.70
2018,07,20,01,28,14.70
2018,07,20,01,29,14.70
2018,07,20,01,30,14.60
2018,07,20,01,31,14.60
2018,07,20,01,32,14.60
2018,07,20,01,33,14.60
2018,07,20,01,34,14.60
2018,07,20,01,35,14.60
2018,07,20,01,36,14.60
2018,07,20,01,37,14.70
2018,07,20,01,38,14.70
2018,07,20,01,39,14.60
2018,07,20,01,40,14.60
2018,07,20,01,41,14.60
2018,07,20,01,42,14.60
2018,07,20,01,43,14.60
2018,07,20,01,44,14.60
2018,07,20,01,45,14.60
2018,07,20,01,46,14.60
2018,07,20,01,47,14.60
2018,07,20,01,48,14.50
2018,07,20,01,49,14.50
2018,07,20,01,50,14.50
2018,07,20,01,51,14.50
2018,07,20,01,52,14.40
2018,07,20,01,53,14.40
2018,07,20,01,54,14.40
2018,07,20,01,55,14.30
2018,07,20,01,56,14.30
2018,07,20,01,57,14.30
2018,07,20,01,58,14.20
2018,07,20,01,59,14.20
2018,07,20,02,00,14.10
2018,07,20,02,01,14.10
2018,07,20,02,02,14.10
2018,07,20,02,03,14.20
2018,07,20,02,04,14.20
2018,07,20,02,05,14.20
2018,07,20,02,06,14.20
2018,07,20,02,07,14.20
2018,07,20,02,08,14.20
2018,07,20,02,09,14.20
2018,07,20,02,10,14.20
2018,07,20,02,11,14.20
2018,07,20,02,12,14.30
2018,07,20,02,13,14.30
2018,07,20,02,14,14.30
2018,07,20,02,15,14.30
2018,07,20,02,16,14.20
2018,07,20,02,17,14.30
2018,07,20,02,18,14.20
2018,07,20,02,19,14.20
2018,07,20,02,20,14.20
2018,07,20,02,21,14.20
2018,07,20,02,22,14.20
2018,07,20,02,23,14.20
2018,07,20,02,24,14.20
2018,07,20,02,25,14.20
2018,07,20,02,26,14.20
2018,07,20,02,27,14.10
2018,07,20,02,28,14.10
2018,07,20,02,29,14.10
2018,07,20,02,30,14.10
2018,07,20,02,31,14.10
2018,07,20,02,32,14.00
2018,07,20,02,33,14.00
2018,07,20,02,34,14.00
2018,07,20,02,35,13.90
2018,07,20,02,36,13.90
2018,07,20,02,37,13.90
2018,07,20,02,38,13.90
2018,07,20,02,39,13.90
2018,07,20,02,40,13.80
2018,07,20,02,41,13.80
2018,07,20,02,42,13.80
2018,07,20,02,43,13.80
2018,07,20,02,44,13.80
2018,07,20,02,45,13.70
2018,07,20,02,46,13.70
2018,07,20,02,47,13.70
2018,07,20,02,48,13.70
2018,07,20,02,49,13.60
2018,07,20,02,50,13.60
2018,07,20,02,51,13.60
2018,07,20,02,52,13.60
2018,07,20,02,53,13.60
2018,07,20,02,54,13.50
2018,07,20,02,55,13.50
2018,07,20,02,56,13.50
2018,07,20,02,57,13.40
2018,07,20,02,58,13.40
2018,07,20,02,59,13.40
2018,07,20,03,00,13.40
2018,07,20,03,01,13.40
2018,07,20,03,02,13.30
2018,07,20,03,03,13.30
2018,07,20,03,04,13.30
2018,07,20,03,05,13.30
2018,07,20,03,06,13.30
2018,07,20,03,07,13.20
2018,07,20,03,08,13.20
2018,07,20,03,09,13.20
2018,07,20,03,10,13.10
2018,07,20,03,11,13.10
2018,07,20,03,12,13.10
2018,07,20,03,13,13.10
2018,07,20,03,14,13.10
2018,07,20,03,15,13.00
2018,07,20,03,16,13.00
2018,07,20,03,17,12.90
2018,07,20,03,18,12.90
2018,07,20,03,19,12.90
2018,07,20,03,20,12.90
2018,07,20,03,21,12.90
2018,07,20,03,22,12.90
2018,07,20,03,23,12.80
2018,07,20,03,24,12.80
2018,07,20,03,25,12.80
2018,07,20,03,26,12.80
2018,07,20,03,27,12.80
2018,07,20,03,28,12.80
2018,07,20,03,29,12.80
2018,07,20,03,30,12.80
2018,07,20,03,31,12.80
2018,07,20,03,32,12.80
2018,07,20,03,33,12.80
2018,07,20,03,34,12.80
2018,07,20,03,35,12.80
2018,07,20,03,36,12.80
2018,07,20,03,37,12.80
2018,07,20,03,38,12.70
2018,07,20,03,39,12.70
2018,07,20,03,40,12.70
2018,07,20,03,41,12.70
2018,07,20,03,42,12.70
2018,07,20,03,43,12.60
2018,07,20,03,44,12.60
2018,07,20,03,45,12.60
2018,07,20,03,46,12.60
2018,07,20,03,47,12.50
2018,07,20,03,48,12.50
2018,07,20,03,49,12.50
2018,07,20,03,50,12.50
2018,07,20,03,51,12.40
2018,07,20,03,52,12.40
2018,07,20,03,53,12.40
2018,07,20,03,54,12.40
2018,07,20,03,55,12.40
2018,07,20,03,56,12.40
2018,07,20,03,57,12.40
2018,07,20,03,58,12.30
2018,07,20,03,59,12.30
2018,07,20,04,00,12.30
2018,07,20,04,01,12.30
2018,07,20,04,02,12.30
2018,07,20,04,03,12.30
2018,07,20,04,04,12.30
2018,07,20,04,05,12.30
2018,07,20,04,06,12.30
2018,07,20,04,07,12.30
2018,07,20,04,08,12.30
2018,07,20,04,09,12.30
2018,07,20,04,10,12.30
2018,07,20,04,11,12.40
2018,07,20,04,12,12.40
2018,07,20,04,13,12.40
2018,07,20,04,14,12.40
2018,07,20,04,15,12.40
2018,07,20,04,16,12.40
2018,07,20,04,17,12.40
2018,07,20,04,18,12.40
2018,07,20,04,19,12.40
2018,07,20,04,20,12.40
2018,07,20,04,21,12.40
2018,07,20,04,22,12.40
2018,07,20,04,23,12.40
2018,07,20,04,24,12.40
2018,07,20,04,25,12.40
2018,07,20,04,26,12.50
2018,07,20,04,27,12.50
2018,07,20,04,28,12.50
2018,07,20,04,29,12.50
2018,07,20,04,30,12.50
2018,07,20,04,31,12.40
2018,07,20,04,32,12.40
2018,07,20,04,33,12.40
2018,07,20,04,34,12.40
2018,07,20,04,35,12.40
2018,07,20,04,36,12.40
2018,07,20,04,37,12.50
2018,07,20,04,38,12.40
2018,07,20,04,39,12.50
2018,07,20,04,40,12.40
2018,07,20,04,41,12.40
2018,07,20,04,42,12.40
2018,07,20,04,43,12.40
2018,07,20,04,44,12.40
2018,07,20,04,45,12.40
2018,07,20,04,46,12.40
2018,07,20,04,47,12.40
2018,07,20,04,48,12.40
2018,07,20,04,49,12.30
2018,07,20,04,50,12.30
2018,07,20,04,51,12.30
2018,07,20,04,52,12.30
2018,07,20,04,53,12.30
2018,07,20,04,54,12.30
2018,07,20,04,55,12.20
2018,07,20,04,56,12.20
2018,07,20,04,57,12.20
2018,07,20,04,58,12.20
2018,07,20,04,59,12.20
2018,07,20,05,00,12.20
2018,07,20,05,01,12.20
2018,07,20,05,02,12.20
2018,07,20,05,03,12.20
2018,07,20,05,04,12.20
2018,07,20,05,05,12.20
2018,07,20,05,06,12.20
2018,07,20,05,07,12.20
2018,07,20,05,08,12.20
2018,07,20,05,09,12.20
2018,07,20,05,10,12.20
2018,07,20,05,11,12.20
2018,07,20,05,12,12.10
2018,07,20,05,13,12.10
2018,07,20,05,14,12.10
2018,07,20,05,15,12.10
2018,07,20,05,16,12.10
2018,07,20,05,17,12.10
2018,07,20,05,18,12.10
2018,07,20,05,19,12.10
2018,07,20,05,20,12.10
2018,07,20,05,21,12.00
2018,07,20,05,22,12.00
2018,07,20,05,23,12.00
2018,07,20,05,24,12.00
2018,07,20,05,25,11.90
2018,07,20,05,26,11.90
2018,07,20,05,27,11.90
2018,07,20,05,28,11.90
2018,07,20,05,29,11.90
2018,07,20,05,30,11.90
2018,07,20,05,31,11.90
2018,07,20,05,32,11.90
2018,07,20,05,33,11.90
2018,07,20,05,34,11.90
2018,07,20,05,35,11.90
2018,07,20,05,36,11.80
2018,07,20,05,37,11.80
2018,07,20,05,38,11.80
2018,07,20,05,39,11.70
2018,07,20,05,40,11.70
2018,07,20,05,41,11.70
2018,07,20,05,42,11.70
2018,07,20,05,43,11.60
2018,07,20,05,44,11.60
2018,07,20,05,45,11.60
2018,07,20,05,46,11.60
2018,07,20,05,47,11.50
2018,07,20,05,48,11.50
2018,07,20,05,49,11.50
2018,07,20,05,50,11.40
2018,07,20,05,51,11.40
2018,07,20,05,52,11.30
2018,07,20,05,53,11.30
2018,07,20,05,54,11.30
2018,07,20,05,55,11.20
2018,07,20,05,56,11.00
2018,07,20,05,57,10.90
2018,07,20,05,58,10.90
2018,07,20,05,59,10.80
2018,07,20,06,00,10.80
2018,07,20,06,01,10.80
2018,07,20,06,02,10.80
2018,07,20,06,03,10.80
2018,07,20,06,04,10.80
2018,07,20,06,05,10.80
2018,07,20,06,06,10.70
2018,07,20,06,07,10.70
2018,07,20,06,08,10.70
2018,07,20,06,09,10.70
2018,07,20,06,10,10.60
2018,07,20,06,11,10.60
2018,07,20,06,12,10.60
2018,07,20,06,13,10.60
2018,07,20,06,14,10.60
2018,07,20,06,15,10.60
2018,07,20,06,16,10.60
2018,07,20,06,17,10.60
2018,07,20,06,18,10.60
2018,07,20,06,19,10.60
2018,07,20,06,20,10.60
2018,07,20,06,21,10.60
2018,07,20,06,22,10.60
2018,07,20,06,23,10.60
2018,07,20,06,24,10.60
2018,07,20,06,25,10.60
2018,07,20,06,26,10.60
2018,07,20,06,27,10.60
2018,07,20,06,28,10.60
2018,07,20,06,29,10.60
2018,07,20,06,30,10.50
2018,07,20,06,31,10.50
2018,07,20,06,32,10.50
2018,07,20,06,33,10.50
2018,07,20,06,34,10.50
2018,07,20,06,35,10.50
2018,07,20,06,36,10.50
2018,07,20,06,37,10.50
2018,07,20,06,38,10.50
2018,07,20,06,39,10.60
2018,07,20,06,40,10.60
2018,07,20,06,41,10.60
2018,07,20,06,42,10.60
2018,07,20,06,43,10.70
2018,07,20,06,44,10.70
2018,07,20,06,45,10.70
2018,07,20,06,46,10.70
2018,07,20,06,47,10.70
2018,07,20,06,48,10.70
2018,07,20,06,49,10.80
2018,07,20,06,50,10.80
2018,07,20,06,51,10.80
2018,07,20,06,52,10.80
2018,07,20,06,53,10.90
2018,07,20,06,54,11.00
2018,07,20,06,55,11.00
2018,07,20,06,56,11.10
2018,07,20,06,57,11.20
2018,07,20,06,58,11.20
2018,07,20,06,59,11.20
2018,07,20,07,00,11.30
2018,07,20,07,01,11.30
2018,07,20,07,02,11.40
2018,07,20,07,03,11.50
2018,07,20,07,04,11.50
2018,07,20,07,05,11.60
2018,07,20,07,06,11.60
2018,07,20,07,07,11.70
2018,07,20,07,08,11.70
2018,07,20,07,09,11.80
2018,07,20,07,10,11.80
2018,07,20,07,11,11.90
2018,07,20,07,12,11.90
2018,07,20,07,13,12.00
2018,07,20,07,14,12.10
2018,07,20,07,15,12.10
2018,07,20,07,16,12.20
2018,07,20,07,17,12.20
2018,07,20,07,18,12.30
2018,07,20,07,19,12.30
2018,07,20,07,20,12.30
2018,07,20,07,21,12.40
2018,07,20,07,22,12.40
2018,07,20,07,23,12.40
2018,07,20,07,24,12.50
2018,07,20,07,25,12.50
2018,07,20,07,26,12.50
2018,07,20,07,27,12.50
2018,07,20,07,28,12.60
2018,07,20,07,29,12.60
2018,07,20,07,30,12.70
2018,07,20,07,31,12.70
2018,07,20,07,32,12.80
2018,07,20,07,33,12.90
2018,07,20,07,34,13.00
2018,07,20,07,35,13.00
2018,07,20,07,36,13.10
2018,07,20,07,37,13.20
2018,07,20,07,38,13.30
2018,07,20,07,39,13.40
2018,07,20,07,40,13.40
2018,07,20,07,41,13.50
2018,07,20,07,42,13.60
2018,07,20,07,43,13.60
2018,07,20,07,44,13.70
2018,07,20,07,45,13.80
2018,07,20,07,46,13.80
2018,07,20,07,47,13.80
2018,07,20,07,48,13.90
2018,07,20,07,49,13.90
2018,07,20,07,50,13.90
2018,07,20,07,51,13.90
2018,07,20,07,52,14.00
2018,07,20,07,53,14.00
2018,07,20,07,54,14.10
2018,07,20,07,55,14.10
2018,07,20,07,56,14.20
2018,07,20,07,57,14.20
2018,07,20,07,58,14.20
2018,07,20,07,59,14.20
2018,07,20,08,00,14.30
2018,07,20,08,01,14.40
2018,07,20,08,02,14.40
2018,07,20,08,03,14.40
2018,07,20,08,04,14.40
2018,07,20,08,05,14.40
2018,07,20,08,06,14.40
2018,07,20,08,07,14.50
2018,07,20,08,08,14.50
2018,07,20,08,09,14.50
2018,07,20,08,10,14.60
2018,07,20,08,11,14.60
2018,07,20,08,12,14.60
2018,07,20,08,13,14.60
2018,07,20,08,14,14.70
2018,07,20,08,15,14.70
2018,07,20,08,16,14.80
2018,07,20,08,17,14.80
2018,07,20,08,18,14.80
2018,07,20,08,19,14.90
2018,07,20,08,20,14.90
2018,07,20,08,21,14.90
2018,07,20,08,22,14.90
2018,07,20,08,23,15.00
2018,07,20,08,24,15.00
2018,07,20,08,25,15.10
2018,07,20,08,26,15.10
2018,07,20,08,27,15.10
2018,07,20,08,28,15.20
2018,07,20,08,29,15.20
2018,07,20,08,30,15.30
2018,07,20,08,31,15.30
2018,07,20,08,32,15.30
2018,07,20,08,33,15.30
2018,07,20,08,34,15.40
2018,07,20,08,35,15.40
2018,07,20,08,36,15.40
2018,07,20,08,37,15.40
2018,07,20,08,38,15.50
2018,07,20,08,39,15.50
2018,07,20,08,40,15.60
2018,07,20,08,41,15.60
2018,07,20,08,42,15.70
2018,07,20,08,43,15.70
2018,07,20,08,44,15.80
2018,07,20,08,45,15.80
2018,07,20,08,46,15.80
2018,07,20,08,47,15.80
2018,07,20,08,48,15.90
2018,07,20,08,49,16.00
2018,07,20,08,50,16.00
2018,07,20,08,51,16.00
2018,07,20,08,52,16.00
2018,07,20,08,53,16.10
2018,07,20,08,54,16.10
2018,07,20,08,55,16.20
2018,07,20,08,56,16.30
2018,07,20,08,57,16.30
2018,07,20,08,58,16.30
2018,07,20,08,59,16.30
2018,07,20,09,00,16.30
2018,07,20,09,01,16.30
2018,07,20,09,02,16.40
2018,07,20,09,03,16.40
2018,07,20,09,04,16.40
2018,07,20,09,05,16.40
2018,07,20,09,06,16.40
2018,07,20,09,07,16.40
2018,07,20,09,08,16.40
2018,07,20,09,09,16.50
2018,07,20,09,10,16.50
2018,07,20,09,11,16.50
2018,07,20,09,12,16.50
2018,07,20,09,13,16.50
2018,07,20,09,14,16.60
2018,07,20,09,15,16.60
2018,07,20,09,16,16.60
2018,07,20,09,17,16.60
2018,07,20,09,18,16.70
2018,07,20,09,19,16.80
2018,07,20,09,20,16.80
2018,07,20,09,21,16.80
2018,07,20,09,22,16.90
2018,07,20,09,23,16.90
2018,07,20,09,24,17.00
2018,07,20,09,25,17.00
2018,07,20,09,26,17.00
2018,07,20,09,27,16.90
2018,07,20,09,28,16.90
2018,07,20,09,29,16.80
2018,07,20,09,30,16.80
2018,07,20,09,31,16.80
2018,07,20,09,32,16.80
2018,07,20,09,33,16.80
2018,07,20,09,34,16.70
2018,07,20,09,35,16.80
2018,07,20,09,36,16.80
2018,07,20,09,37,16.80
2018,07,20,09,38,16.80
2018,07,20,09,39,16.80
2018,07,20,09,40,16.80
2018,07,20,09,41,16.80
2018,07,20,09,42,16.70
2018,07,20,09,43,16.70
2018,07,20,09,44,16.70
2018,07,20,09,45,16.70
2018,07,20,09,46,16.70
2018,07,20,09,47,16.70
2018,07,20,09,48,16.80
2018,07,20,09,49,16.80
2018,07,20,09,50,16.80
2018,07,20,09,51,16.80
2018,07,20,09,52,16.80
2018,07,20,09,53,16.80
2018,07,20,09,54,16.80
2018,07,20,09,55,16.80
2018,07,20,09,56,16.80
2018,07,20,09,57,16.80
2018,07,20,09,58,16.90
2018,07,20,09,59,16.90
2018,07,20,10,00,16.90
2018,07,20,10,01,17.00
2018,07,20,10,02,17.10
2018,07,20,10,03,17.10
2018,07,20,10,04,17.20
2018,07,20,10,05,17.20
2018,07,20,10,06,17.20
2018,07,20,10,07,17.20
2018,07,20,10,08,17.20
2018,07,20,10,09,17.20
2018,07,20,10,10,17.20
2018,07,20,10,11,17.30
2018,07,20,10,12,17.30
2018,07,20,10,13,17.30
2018,07,20,10,14,17.40
2018,07,20,10,15,17.50
2018,07,20,10,16,17.50
2018,07,20,10,17,17.60
2018,07,20,10,18,17.60
2018,07,20,10,19,17.60
2018,07,20,10,20,17.70
2018,07,20,10,21,17.70
2018,07,20,10,22,17.70
2018,07,20,10,23,17.60
2018,07,20,10,24,17.60
2018,07,20,10,25,17.70
2018,07,20,10,26,17.70
2018,07,20,10,27,17.80
2018,07,20,10,28,17.80
2018,07,20,10,29,17.80
2018,07,20,10,30,17.70
2018,07,20,10,31,17.70
2018,07,20,10,32,17.80
2018,07,20,10,33,17.80
2018,07,20,10,34,17.80
2018,07,20,10,35,17.80
2018,07,20,10,36,17.80
2018,07,20,10,37,17.80
2018,07,20,10,38,17.80
2018,07,20,10,39,17.80
2018,07,20,10,40,17.80
2018,07,20,10,41,17.80
2018,07,20,10,42,17.80
2018,07,20,10,43,17.80
2018,07,20,10,44,17.80
2018,07,20,10,45,17.80
2018,07,20,10,46,17.80
2018,07,20,10,47,17.80
2018,07,20,10,48,17.90
2018,07,20,10,49,17.90
2018,07,20,10,50,17.90
2018,07,20,10,51,18.00
2018,07,20,10,52,18.00
2018,07,20,10,53,18.00
2018,07,20,10,54,18.00
2018,07,20,10,55,18.10
2018,07,20,10,56,18.10
2018,07,20,10,57,18.00
2018,07,20,10,58,18.10
2018,07,20,10,59,18.10
2018,07,20,11,00,18.10
2018,07,20,11,01,18.20
2018,07,20,11,02,18.10
2018,07,20,11,03,18.10
2018,07,20,11,04,18.00
2018,07,20,11,05,18.10
2018,07,20,11,06,18.10
2018,07,20,11,07,18.10
2018,07,20,11,08,18.10
2018,07,20,11,09,18.10
2018,07,20,11,10,18.00
2018,07,20,11,11,18.10
2018,07,20,11,12,18.10
2018,07,20,11,13,18.10
2018,07,20,11,14,18.10
2018,07,20,11,15,18.10
2018,07,20,11,16,18.10
2018,07,20,11,17,18.20
2018,07,20,11,18,18.20
2018,07,20,11,19,18.20
2018,07,20,11,20,18.20
2018,07,20,11,21,18.20
2018,07,20,11,22,18.30
2018,07,20,11,23,18.30
2018,07,20,11,24,18.40
2018,07,20,11,25,18.50
2018,07,20,11,26,18.60
2018,07,20,11,27,18.70
2018,07,20,11,28,18.80
2018,07,20,11,29,18.80
2018,07,20,11,30,18.80
2018,07,20,11,31,18.70
2018,07,20,11,32,18.70
2018,07,20,11,33,18.70
2018,07,20,11,34,18.70
2018,07,20,11,35,18.60
2018,07,20,11,36,18.50
2018,07,20,11,37,18.40
2018,07,20,11,38,18.30
2018,07,20,11,39,18.30
2018,07,20,11,40,18.30
2018,07,20,11,41,18.30
2018,07,20,11,42,18.30
2018,07,20,11,43,18.30
2018,07,20,11,44,18.40
2018,07,20,11,45,18.40
2018,07,20,11,46,18.50
2018,07,20,11,47,18.60
2018,07,20,11,48,18.60
2018,07,20,11,49,18.70
2018,07,20,11,50,18.70
2018,07,20,11,51,18.70
2018,07,20,11,52,18.80
2018,07,20,11,53,18.80
2018,07,20,11,54,18.70
2018,07,20,11,55,18.70
2018,07,20,11,56,18.70
2018,07,20,11,57,18.70
2018,07,20,11,58,18.70
2018,07,20,11,59,18.70
2018,07,20,12,00,18.70
2018,07,20,12,01,18.80
2018,07,20,12,02,18.90
2018,07,20,12,03,19.00
2018,07,20,12,04,19.10
2018,07,20,12,05,19.10
2018,07,20,12,06,19.10
2018,07,20,12,07,19.10
2018,07,20,12,08,19.10
2018,07,20,12,09,19.00
2018,07,20,12,10,19.00
2018,07,20,12,11,18.90
2018,07,20,12,12,18.90
2018,07,20,12,13,19.00
2018,07,20,12,14,19.00
2018,07,20,12,15,19.00
2018,07,20,12,16,19.00
2018,07,20,12,17,19.00
2018,07,20,12,18,18.90
2018,07,20,12,19,18.80
2018,07,20,12,20,18.80
2018,07,20,12,21,18.80
2018,07,20,12,22,18.80
2018,07,20,12,23,18.80
2018,07,20,12,24,18.80
2018,07,20,12,25,18.90
2018,07,20,12,26,19.00
2018,07,20,12,27,19.00
2018,07,20,12,28,19.10
2018,07,20,12,29,19.20
2018,07,20,12,30,19.30
2018,07,20,12,31,19.30
2018,07,20,12,32,19.30
2018,07,20,12,33,19.30
2018,07,20,12,34,19.20
2018,07,20,12,35,19.20
2018,07,20,12,36,19.30
2018,07,20,12,37,19.30
2018,07,20,12,38,19.40
2018,07,20,12,39,19.40
2018,07,20,12,40,19.50
2018,07,20,12,41,19.60
2018,07,20,12,42,19.60
2018,07,20,12,43,19.60
2018,07,20,12,44,19.60
2018,07,20,12,45,19.60
2018,07,20,12,46,19.50
2018,07,20,12,47,19.50
2018,07,20,12,48,19.40
2018,07,20,12,49,19.40
2018,07,20,12,50,19.50
2018,07,20,12,51,19.50
2018,07,20,12,52,19.60
2018,07,20,12,53,19.60
2018,07,20,12,54,19.60
2018,07,20,12,55,19.60
2018,07,20,12,56,19.70
2018,07,20,12,57,19.60
2018,07,20,12,58,19.60
2018,07,20,12,59,19.60
2018,07,20,13,00,19.60
2018,07,20,13,01,19.60
2018,07,20,13,02,19.70
2018,07,20,13,03,19.70
2018,07,20,13,04,19.70
2018,07,20,13,05,19.70
2018,07,20,13,06,19.80
2018,07,20,13,07,19.80
2018,07,20,13,08,19.90
2018,07,20,13,09,19.80
2018,07,20,13,10,19.80
2018,07,20,13,11,19.80
2018,07,20,13,12,19.80
2018,07,20,13,13,19.80
2018,07,20,13,14,19.90
2018,07,20,13,15,19.90
2018,07,20,13,16,20.00
2018,07,20,13,17,20.10
2018,07,20,13,18,20.10
2018,07,20,13,19,20.20
2018,07,20,13,20,20.10
2018,07,20,13,21,20.10
2018,07,20,13,22,20.10
2018,07,20,13,23,20.10
2018,07,20,13,24,20.20
2018,07,20,13,25,20.20
2018,07,20,13,26,20.20
2018,07,20,13,27,20.10
2018,07,20,13,28,20.00
2018,07,20,13,29,20.00
2018,07,20,13,30,20.00
2018,07,20,13,31,20.00
2018,07,20,13,32,20.10
2018,07,20,13,33,20.20
2018,07,20,13,34,20.20
2018,07,20,13,35,20.10
2018,07,20,13,36,20.00
2018,07,20,13,37,19.90
2018,07,20,13,38,19.90
2018,07,20,13,39,19.80
2018,07,20,13,40,19.80
2018,07,20,13,41,19.80
2018,07,20,13,42,19.80
2018,07,20,13,43,19.80
2018,07,20,13,44,19.80
2018,07,20,13,45,19.90
2018,07,20,13,46,19.90
2018,07,20,13,47,19.90
2018,07,20,13,48,19.90
2018,07,20,13,49,20.00
2018,07,20,13,50,20.00
2018,07,20,13,51,20.10
2018,07,20,13,52,20.20
2018,07,20,13,53,20.20
2018,07,20,13,54,20.20
2018,07,20,13,55,20.20
2018,07,20,13,56,20.20
2018,07,20,13,57,20.20
2018,07,20,13,58,20.20
2018,07,20,13,59,20.20
2018,07,20,14,00,20.20
2018,07,20,14,01,20.20
2018,07,20,14,02,20.30
2018,07,20,14,03,20.30
2018,07,20,14,04,20.30
2018,07,20,14,05,20.30
2018,07,20,14,06,20.40
2018,07,20,14,07,20.50
2018,07,20,14,08,20.50
2018,07,20,14,09,20.60
2018,07,20,14,10,20.70
2018,07,20,14,11,20.60
2018,07,20,14,12,20.50
2018,07,20,14,13,20.40
2018,07,20,14,14,20.50
2018,07,20,14,15,20.50
2018,07,20,14,16,20.60
2018,07,20,14,17,20.50
2018,07,20,14,18,20.40
2018,07,20,14,19,20.30
2018,07,20,14,20,20.30
2018,07,20,14,21,20.30
2018,07,20,14,22,20.30
2018,07,20,14,23,20.30
2018,07,20,14,24,20.30
2018,07,20,14,25,20.30
2018,07,20,14,26,20.50
2018,07,20,14,27,20.60
2018,07,20,14,28,20.70
2018,07,20,14,29,20.80
2018,07,20,14,30,20.90
2018,07,20,14,31,20.90
2018,07,20,14,32,20.90
2018,07,20,14,33,20.80
2018,07,20,14,34,20.80
2018,07,20,14,35,20.70
2018,07,20,14,36,20.80
2018,07,20,14,37,20.80
2018,07,20,14,38,20.80
2018,07,20,14,39,20.90
2018,07,20,14,40,20.90
2018,07,20,14,41,20.80
2018,07,20,14,42,20.80
2018,07,20,14,43,20.80
2018,07,20,14,44,20.70
2018,07,20,14,45,20.70
2018,07,20,14,46,20.80
2018,07,20,14,47,20.80
2018,07,20,14,48,20.90
2018,07,20,14,49,21.00
2018,07,20,14,50,21.00
2018,07,20,14,51,21.00
2018,07,20,14,52,21.00
2018,07,20,14,53,21.00
2018,07,20,14,54,21.00
2018,07,20,14,55,20.90
2018,07,20,14,56,20.90
2018,07,20,14,57,21.00
2018,07,20,14,58,21.00
2018,07,20,14,59,21.10
2018,07,20,15,00,21.20
2018,07,20,15,01,21.10
2018,07,20,15,02,21.00
2018,07,20,15,03,20.90
2018,07,20,15,04,20.90
2018,07,20,15,05,20.90
2018,07,20,15,06,21.00
2018,07,20,15,07,21.00
2018,07,20,15,08,21.10
2018,07,20,15,09,21.20
2018,07,20,15,10,21.20
2018,07,20,15,11,21.30
2018,07,20,15,12,21.20
2018,07,20,15,13,21.10
2018,07,20,15,14,21.00
2018,07,20,15,15,21.00
2018,07,20,15,16,21.00
2018,07,20,15,17,21.10
2018,07,20,15,18,21.10
2018,07,20,15,19,21.20
2018,07,20,15,20,21.30
2018,07,20,15,21,21.40
2018,07,20,15,22,21.50
2018,07,20,15,23,21.50
2018,07,20,15,24,21.60
2018,07,20,15,25,21.60
2018,07,20,15,26,21.70
2018,07,20,15,27,21.70
2018,07,20,15,28,21.70
2018,07,20,15,29,21.70
2018,07,20,15,30,21.70
2018,07,20,15,31,21.70
2018,07,20,15,32,21.70
2018,07,20,15,33,21.70
2018,07,20,15,34,21.80
2018,07,20,15,35,21.80
2018,07,20,15,36,21.80
2018,07,20,15,37,21.80
2018,07,20,15,38,21.80
2018,07,20,15,39,21.90
2018,07,20,15,40,22.00
2018,07,20,15,41,22.00
2018,07,20,15,42,22.00
2018,07,20,15,43,22.00
2018,07,20,15,44,21.90
2018,07,20,15,45,21.80
2018,07,20,15,46,21.60
2018,07,20,15,47,21.60
2018,07,20,15,48,21.70
2018,07,20,15,49,21.80
2018,07,20,15,50,21.80
2018,07,20,15,51,21.80
2018,07,20,15,52,21.70
2018,07,20,15,53,21.70
2018,07,20,15,54,21.70
2018,07,20,15,55,21.80
2018,07,20,15,56,21.80
2018,07,20,15,57,21.90
2018,07,20,15,58,21.90
2018,07,20,15,59,21.90
2018,07,20,16,00,22.00
2018,07,20,16,01,22.10
2018,07,20,16,02,22.20
2018,07,20,16,03,22.30
2018,07,20,16,04,22.30
2018,07,20,16,05,22.30
2018,07,20,16,06,22.30
2018,07,20,16,07,22.30
2018,07,20,16,08,22.30
2018,07,20,16,09,22.30
2018,07,20,16,10,22.20
2018,07,20,16,11,22.30
2018,07,20,16,12,22.30
2018,07,20,16,13,22.20
2018,07,20,16,14,22.20
2018,07,20,16,15,22.20
2018,07,20,16,16,22.20
2018,07,20,16,17,22.30
2018,07,20,16,18,22.40
2018,07,20,16,19,22.50
2018,07,20,16,20,22.50
2018,07,20,16,21,22.60
2018,07,20,16,22,22.60
2018,07,20,16,23,22.50
2018,07,20,16,24,22.50
2018,07,20,16,25,22.60
2018,07,20,16,26,22.60
2018,07,20,16,27,22.50
2018,07,20,16,28,22.40
2018,07,20,16,29,22.20
2018,07,20,16,30,22.10
2018,07,20,16,31,22.00
2018,07,20,16,32,21.80
2018,07,20,16,33,21.80
2018,07,20,16,34,21.70
2018,07,20,16,35,21.70
2018,07,20,16,36,21.70
2018,07,20,16,37,21.70
2018,07,20,16,38,21.70
2018,07,20,16,39,21.70
2018,07,20,16,40,21.60
2018,07,20,16,41,21.60
2018,07,20,16,42,21.70
2018,07,20,16,43,21.70
2018,07,20,16,44,21.80
2018,07,20,16,45,21.80
2018,07,20,16,46,21.80
2018,07,20,16,47,21.80
2018,07,20,16,48,21.80
2018,07,20,16,49,21.90
2018,07,20,16,50,22.00
2018,07,20,16,51,22.10
2018,07,20,16,52,22.00
2018,07,20,16,53,21.90
2018,07,20,16,54,21.80
2018,07,20,16,55,21.80
2018,07,20,16,56,21.80
2018,07,20,16,57,21.60
2018,07,20,16,58,21.50
2018,07,20,16,59,21.40
2018,07,20,17,00,21.40
2018,07,20,17,01,21.50
2018,07,20,17,02,21.60
2018,07,20,17,03,21.60
2018,07,20,17,04,21.60
2018,07,20,17,05,21.60
2018,07,20,17,06,21.60
2018,07,20,17,07,21.60
2018,07,20,17,08,21.60
2018,07,20,17,09,21.70
2018,07,20,17,10,21.80
2018,07,20,17,11,21.80
2018,07,20,17,12,21.80
2018,07,20,17,13,21.70
2018,07,20,17,14,21.70
2018,07,20,17,15,21.70
2018,07,20,17,16,21.70
2018,07,20,17,17,21.70
2018,07,20,17,18,21.60
2018,07,20,17,19,21.60